Regional Weather Roundup
Issued by NWS Newport/Morehead, NC

Current Version | Previous Version | Graphics & Text | Print | Product List | Glossary On
Versions: 1 2 3 4 5 6 7 8 9 10 11 12 13 14 15 16 17 18 19 20 21 22 23 24 25 26 27 28 29 30 31 32 33 34 35 36 37 38 39 40 41 42 43 44 45 46 47 48 49 50
000 ASUS42 KMHX 251513 RWRMHX WEATHER ROUNDUP FOR EASTERN NORTH CAROLINA NATIONAL WEATHER SERVICE NEWPORT/MOREHEAD CITY NC 1100 AM EDT SUN JUN 25 2017 NOTE: "FAIR" INDICATES FEW OR NO CLOUDS BELOW 12,000 FEET WITH NO SIGNIFICANT WEATHER AND/OR OBSTRUCTIONS TO VISIBILITY NCZ015>017-031-032-045>047-102-103-251600- NORTH COAST CITY SKY/WX TMP DP RH WIND PRES REMARKS EDENTON PTSUNNY 81 73 77 CALM 30.04S ELIZABETH CITY SUNNY 83 75 77 W6 30.03S KITTY HAWK MOSUNNY 80 73 78 W6 30.02S MANTEO MOSUNNY 79 73 81 W6 30.03F $$ NCZ045>047-081-094-103-104-251600- CENTRAL COAST CITY SKY/WX TMP DP RH WIND PRES REMARKS FRISCO CLOUDY 80 75 84 W6 30.05R $$ NCZ095-097-098-100-101-251600- SOUTHERN COAST CITY SKY/WX TMP DP RH WIND PRES REMARKS BEAUFORT CLOUDY 81 77 88 SW9 30.05R CEDAR ISLAND NOT AVBL JACKSONVILLE CLOUDY 80 76 87 W6 30.05R PINEY ISLAND CLOUDY N/A N/A N/A W6 30.04S WILMINGTON PTSUNNY 82 75 79 SW8 30.06R $$ NCZ011>013-027>030-043-044-078>080-089-090>093-098-251600- COASTAL PLAIN CITY SKY/WX TMP DP RH WIND PRES REMARKS AHOSKIE N/A 75 71 88 CALM 30.05R CLINTON CLOUDY 77 76 96 N3 30.07R ELIZABETHTOWN NOT AVBL GOLDSBORO CLOUDY 78 78 100 CALM 30.05R GREENVILLE CLOUDY 79 73 83 CALM 30.06S HAVELOCK CLOUDY 80 74 81 SW7 30.05S KENANSVILLE CLOUDY 79 75 89 W5 30.06R KINSTON CLOUDY 79 73 83 NW3 30.06S NEW BERN CLOUDY 79 75 87 NW5 30.06R RICHLANDS CLOUDY 79 76 90 SW3 30.07R ROCKY MOUNT MOSUNNY 80 71 74 NW6 30.06R WASHINGTON PTSUNNY N/A N/A N/A W3 30.05R WHITEVILLE CLOUDY 79 73 82 CALM 30.07R $$ AMZ130-135-150-152-154-156-158-170-250-252-270-ANZ085-086-088-633-658-670-251600- MARINE OBSERVATIONS STATION/POSITION TIME TEMP WIND PRES WAVE SWELL AIR SEA DIR/SP/G HT/PER HT/PER (UTC) (F) (DEG/KT/KT) (MB) (FT/S) (FT/S) CHESAPEAKE LIGHT NOT AVBL 64 E VA BEACH 1450 72 72 250/ 8/ 8 1017.2 4/ 7 3/ 7 DUCK 1448 77 60 260/ 6/ 9 1016.5 2 E DUCK NOT AVBL OREGON INLET 1436 78 80 240/ 5/ 6 1016.9 13E OREGON INLT 1448 74 N/A 3/ 7 3/ 7 HATTERAS CG 1436 78 78 270/ 5/ 6 1017.1 DIAMOND BUOY 1450 78 80 280/ 10/ 12 1017.2 4/ 6 3/ 6 CAPE LOOKOUT 1500 80 250/ 11/ 12 1017.2 BEAUFORT LAB 1448 80 78 220/ 5/ 7 1016.9 30 SE NEW RVR IN 1408 79 80 270/ 10/ 14 1017.5 30 SE NEW RVR IN 1443 80 N/A 4/ 6 27 SE WRIGHTSVLE 1408 77 80 240/ 12/ 17 1017.7 5 SE WRIGHTSVLE 1408 79 79 220/ 4/ 8 1017.5 225 S CAPE HAT 1450 81 80 210/ 14/ 16 1021.0 4/ 6 2/ 7 41 SE CHARLESTON 1450 80 81 240/ 12/ 14 1018.5 4/ 6 2/ 8 $$

USA.gov is the U.S. government's official web portal to all federal, state and local government web resources and services.